[Date Prev][Date Next][Thread Prev][Thread Next] - [Date Index][Thread Index][Author Index]

2 Line ISS Keps 8-28



ISS
1 25544U 98067A   05240.06906355  .00027616  00000-0  20894-3 0  2334
2 25544 051.6450 252.9030 0001067 010.8856 028.5877 15.72190456386998
----
Via the sarex mailing list at AMSAT.ORG courtesy of AMSAT-NA.
To unsubscribe, send "unsubscribe sarex" to Majordomo@amsat.org



AMSAT Top AMSAT Home